| time (UTC) | temp F | wind direction | speed knots | gust knots | rain 1hr in | rain 24hr in | rain mn in | humidity % | barometer mb |
| 20260509135734 | 77 | 184 | 5.2 | 6.1 | 0.00 | 0.00 | 0.00 | 88 | 1011.7 |
| 20260509135232 | 76 | 181 | 3.5 | 3.5 | 0.00 | 0.00 | 0.00 | 90 | 1011.2 |
| 20260509134729 | 76 | 192 | 7.0 | 9.6 | 0.00 | 0.00 | 0.00 | 90 | 1011.5 |
| 20260509134226 | 76 | 193 | 3.5 | 3.5 | 0.00 | 0.00 | 0.00 | 91 | 1011.7 |
| 20260509133724 | 75 | 259 | 5.2 | 7.0 | 0.00 | 0.00 | 0.00 | 92 | 1011.8 |
| 20260509133220 | 75 | 184 | 4.3 | 5.2 | 0.00 | 0.00 | 0.00 | 93 | 1011.9 |
| 20260509132719 | 74 | 194 | 5.2 | 6.1 | 0.00 | 0.00 | 0.00 | 94 | 1011.8 |
| 20260509132217 | 74 | 207 | 3.5 | 5.2 | 0.00 | 0.00 | 0.00 | 95 | 1011.9 |
| 20260509131713 | 73 | 177 | 4.3 | 5.2 | 0.00 | 0.00 | 0.00 | 96 | 1012.0 |
| 20260509131210 | 73 | 177 | 1.7 | 2.6 | 0.00 | 0.00 | 0.00 | 97 | 1012.0 |
| 20260509130706 | 72 | 164 | 3.5 | 3.5 | 0.00 | 0.00 | 0.00 | 98 | 1012.1 |
| 20260509130202 | 72 | 176 | 5.2 | 6.1 | 0.00 | 0.00 | 0.00 | 99 | 1012.2 |
| 20260509125658 | 72 | 193 | 1.7 | 1.7 | 0.00 | 0.00 | 0.00 | 99 | 1012.4 |
| 20260509125155 | 72 | 172 | 0.9 | 1.7 | 0.00 | 0.00 | 0.00 | 99 | 1012.2 |
| 20260509124652 | 72 | 237 | 0.0 | 0.9 | 0.00 | 0.00 | 0.00 | 99 | 1012.3 |
| 20260509124149 | 72 | 214 | 0.9 | 1.7 | 0.00 | 0.00 | 0.00 | 99 | 1012.3 |
| 20260509123647 | 72 | 218 | 0.0 | 0.0 | 0.00 | 0.00 | 0.00 | 99 | 1012.3 |
| 20260509123144 | 72 | 262 | 0.0 | 0.0 | 0.00 | 0.00 | 0.00 | 99 | 1012.2 |
| 20260509122639 | 71 | 318 | 0.0 | 0.9 | 0.00 | 0.00 | 0.00 | 99 | 1012.2 |
| 20260509122136 | 71 | 293 | 1.7 | 1.7 | 0.00 | 0.00 | 0.00 | 99 | 1011.9 |
| 20260509121633 | 71 | 330 | 0.9 | 1.7 | 0.00 | 0.00 | 0.00 | 99 | 1011.9 |
| 20260509121131 | 71 | 331 | 0.0 | 0.0 | 0.00 | 0.00 | 0.00 | 99 | 1012.1 |
| 20260509120628 | 71 | 264 | 1.7 | 2.6 | 0.00 | 0.00 | 0.00 | 99 | 1012.1 |
| 20260509120127 | 71 | 304 | 0.9 | 0.9 | 0.00 | 0.00 | 0.00 | 99 | 1012.2 |
| 20260509115623 | 71 | 348 | 2.6 | 3.5 | 0.00 | 0.00 | 0.00 | 99 | 1012.4 |
| 20260509115121 | 71 | 64 | 0.0 | 0.0 | 0.00 | 0.00 | 0.00 | 99 | 1012.0 |
| 20260509114619 | 71 | 126 | 0.9 | 0.9 | 0.00 | 0.00 | 0.00 | 99 | 1012.1 |
| 20260509114118 | 71 | 148 | 1.7 | 1.7 | 0.00 | 0.00 | 0.00 | 99 | 1012.4 |
| 20260509113616 | 72 | 147 | 0.9 | 1.7 | 0.00 | 0.00 | 0.00 | 99 | 1012.7 |
| 20260509113113 | 72 | 340 | 0.0 | 0.0 | 0.00 | 0.00 | 0.00 | 99 | 1012.8 |
| 20260509112609 | 72 | 357 | 0.0 | 0.9 | 0.00 | 0.00 | 0.00 | 99 | 1013.0 |
| 20260509112106 | 72 | 11 | 0.0 | 0.0 | 0.00 | 0.00 | 0.00 | 99 | 1013.1 |
| 20260509111603 | 72 | 328 | 3.5 | 3.5 | 0.00 | 0.00 | 0.00 | 99 | 1013.2 |
| 20260509111100 | 72 | 317 | 2.6 | 3.5 | 0.00 | 0.00 | 0.00 | 99 | 1013.4 |
| 20260509110557 | 72 | 294 | 2.6 | 2.6 | 0.00 | 0.00 | 0.00 | 99 | 1013.4 |
| 20260509110054 | 72 | 332 | 1.7 | 2.6 | 0.00 | 0.00 | 0.00 | 99 | 1013.5 |
| 20260509105553 | 72 | 323 | 0.9 | 0.9 | 0.00 | 0.00 | 0.00 | 99 | 1013.5 |
| 20260509105050 | 71 | 341 | 1.7 | 1.7 | 0.00 | 0.00 | 0.00 | 99 | 1013.5 |
| 20260509104547 | 71 | 326 | 1.7 | 1.7 | 0.00 | 0.00 | 0.00 | 99 | 1013.5 |
| 20260509104043 | 71 | 303 | 0.9 | 0.9 | 0.00 | 0.00 | 0.00 | 99 | 1013.4 |
| 20260509103541 | 71 | 334 | 2.6 | 2.6 | 0.00 | 0.00 | 0.00 | 99 | 1013.6 |
| 20260509103039 | 71 | 334 | 2.6 | 3.5 | 0.00 | 0.00 | 0.00 | 99 | 1013.5 |
| 20260509102536 | 71 | 331 | 0.0 | 0.0 | 0.00 | 0.00 | 0.00 | 99 | 1013.4 |
| 20260509102033 | 71 | 308 | 0.0 | 0.0 | 0.00 | 0.00 | 0.00 | 99 | 1013.6 |
| 20260509101529 | 71 | 324 | 0.9 | 1.7 | 0.00 | 0.00 | 0.00 | 99 | 1013.2 |
| 20260509101026 | 71 | 331 | 0.9 | 1.7 | 0.00 | 0.00 | 0.00 | 99 | 1013.2 |
| 20260509100523 | 71 | 5 | 0.9 | 1.7 | 0.00 | 0.00 | 0.00 | 99 | 1012.9 |
| 20260509100021 | 71 | 344 | 1.7 | 1.7 | 0.00 | 0.00 | 0.00 | 99 | 1012.9 |
| 20260509095517 | 71 | 117 | 0.0 | 0.0 | 0.00 | 0.00 | 0.00 | 99 | 1012.5 |
| 20260509095015 | 71 | 117 | 0.0 | 0.0 | 0.00 | 0.00 | 0.00 | 99 | 1012.4 |
| 20260509094511 | 71 | 117 | 0.0 | 0.0 | 0.00 | 0.00 | 0.00 | 99 | 1012.2 |
| 20260509094008 | 71 | 117 | 0.0 | 0.0 | 0.00 | 0.00 | 0.00 | 99 | 1012.1 |
| 20260509093506 | 71 | 117 | 0.0 | 0.0 | 0.00 | 0.00 | 0.00 | 99 | 1011.9 |
| 20260509093004 | 71 | 117 | 0.0 | 0.0 | 0.00 | 0.00 | 0.00 | 99 | 1011.8 |
| 20260509092501 | 71 | 201 | 0.0 | 0.0 | 0.00 | 0.00 | 0.00 | 99 | 1011.9 |
| 20260509092000 | 71 | 201 | 0.0 | 0.0 | 0.00 | 0.00 | 0.00 | 99 | 1011.8 |
| 20260509091456 | 71 | 201 | 0.0 | 0.9 | 0.00 | 0.00 | 0.00 | 99 | 1011.8 |
| 20260509090953 | 71 | 130 | 0.0 | 0.0 | 0.00 | 0.00 | 0.00 | 99 | 1011.7 |
| 20260509090451 | 71 | 131 | 0.0 | 0.0 | 0.00 | 0.00 | 0.00 | 99 | 1011.6 |
| 20260509085948 | 71 | 126 | 0.0 | 0.0 | 0.00 | 0.00 | 0.00 | 99 | 1011.7 |
| 20260509085444 | 71 | 73 | 0.0 | 0.0 | 0.00 | 0.00 | 0.00 | 99 | 1011.7 |
| 20260509084940 | 71 | 62 | 0.0 | 0.0 | 0.00 | 0.00 | 0.00 | 99 | 1012.0 |
| 20260509084432 | 71 | 63 | 0.0 | 0.0 | 0.00 | 0.00 | 0.00 | 99 | 1012.1 |
| 20260509083930 | 71 | 63 | 0.0 | 0.0 | 0.00 | 0.00 | 0.00 | 99 | 1012.2 |
| 20260509083427 | 71 | 89 | 0.9 | 0.9 | 0.00 | 0.00 | 0.00 | 99 | 1012.2 |
| 20260509082924 | 71 | 174 | 0.0 | 0.0 | 0.00 | 0.00 | 0.00 | 99 | 1012.5 |
| 20260509082421 | 71 | 140 | 0.9 | 0.9 | 0.00 | 0.00 | 0.00 | 99 | 1012.4 |
| 20260509081917 | 71 | 94 | 0.9 | 0.9 | 0.00 | 0.00 | 0.00 | 99 | 1012.1 |
| 20260509081415 | 71 | 86 | 0.0 | 0.0 | 0.00 | 0.00 | 0.00 | 99 | 1012.1 |
| 20260509080912 | 71 | 31 | 0.0 | 0.0 | 0.00 | 0.00 | 0.00 | 99 | 1012.0 |
| 20260509080410 | 71 | 70 | 0.0 | 0.9 | 0.00 | 0.00 | 0.00 | 99 | 1012.2 |
| 20260509075908 | 71 | 38 | 0.0 | 0.0 | 0.00 | 0.00 | 0.00 | 99 | 1012.4 |
| 20260509075405 | 71 | 25 | 0.0 | 0.0 | 0.00 | 0.00 | 0.00 | 99 | 1012.5 |
| 20260509074902 | 72 | 45 | 0.0 | 0.0 | 0.00 | 0.00 | 0.00 | 99 | 1012.4 |
| 20260509074400 | 72 | 22 | 0.0 | 0.0 | 0.00 | 0.00 | 0.00 | 99 | 1012.4 |
| 20260509073856 | 72 | 73 | 0.9 | 1.7 | 0.00 | 0.00 | 0.00 | 99 | 1012.4 |
| 20260509073353 | 72 | 68 | 0.0 | 0.0 | 0.00 | 0.00 | 0.00 | 99 | 1012.6 |
| 20260509072849 | 72 | 67 | 0.0 | 0.0 | 0.00 | 0.00 | 0.00 | 99 | 1012.5 |
| 20260509072346 | 72 | 74 | 0.0 | 0.9 | 0.00 | 0.00 | 0.00 | 98 | 1012.7 |
| 20260509071842 | 72 | 52 | 0.0 | 0.0 | 0.00 | 0.00 | 0.00 | 98 | 1012.6 |
| 20260509071339 | 72 | 55 | 0.0 | 0.9 | 0.00 | 0.00 | 0.00 | 98 | 1012.9 |
| 20260509070837 | 72 | 112 | 0.9 | 1.7 | 0.00 | 0.00 | 0.00 | 98 | 1012.8 |
| 20260509070333 | 72 | 115 | 1.7 | 1.7 | 0.00 | 0.00 | 0.00 | 98 | 1012.9 |
| 20260509065830 | 72 | 81 | 0.0 | 0.0 | 0.00 | 0.00 | 0.00 | 98 | 1012.8 |
| 20260509065326 | 72 | 81 | 0.0 | 0.0 | 0.00 | 0.00 | 0.00 | 98 | 1012.5 |
| 20260509064822 | 72 | 79 | 0.9 | 1.7 | 0.00 | 0.00 | 0.00 | 98 | 1012.6 |
| 20260509064320 | 72 | 74 | 0.0 | 0.9 | 0.00 | 0.00 | 0.00 | 97 | 1012.6 |
| 20260509063817 | 72 | 110 | 0.9 | 1.7 | 0.00 | 0.00 | 0.00 | 97 | 1012.4 |
| 20260509063313 | 72 | 107 | 1.7 | 1.7 | 0.00 | 0.00 | 0.00 | 97 | 1012.9 |
| 20260509062810 | 72 | 117 | 2.6 | 3.5 | 0.00 | 0.00 | 0.00 | 97 | 1012.7 |
| 20260509062308 | 72 | 96 | 1.7 | 2.6 | 0.00 | 0.00 | 0.00 | 96 | 1012.5 |
| 20260509061804 | 73 | 116 | 2.6 | 3.5 | 0.00 | 0.00 | 0.00 | 96 | 1012.3 |
| 20260509061302 | 73 | 116 | 2.6 | 3.5 | 0.00 | 0.00 | 0.00 | 95 | 1012.2 |
| 20260509060759 | 73 | 137 | 3.5 | 3.5 | 0.00 | 0.00 | 0.00 | 95 | 1012.2 |
| 20260509060255 | 73 | 130 | 3.5 | 5.2 | 0.00 | 0.00 | 0.00 | 95 | 1012.0 |
| 20260509055746 | 73 | 104 | 4.3 | 5.2 | 0.00 | 0.00 | 0.00 | 95 | 1012.1 |
| 20260509055241 | 73 | 141 | 4.3 | 5.2 | 0.00 | 0.00 | 0.00 | 95 | 1012.2 |
| 20260509054738 | 73 | 127 | 7.0 | 7.8 | 0.00 | 0.00 | 0.00 | 95 | 1012.2 |
| 20260509054235 | 73 | 107 | 2.6 | 2.6 | 0.00 | 0.00 | 0.00 | 95 | 1012.2 |
| 20260509053734 | 73 | 180 | 3.5 | 3.5 | 0.00 | 0.00 | 0.00 | 94 | 1011.8 |
| 20260509053230 | 73 | 117 | 7.0 | 7.0 | 0.00 | 0.00 | 0.00 | 94 | 1011.6 |
| 20260509052728 | 73 | 84 | 5.2 | 6.1 | 0.00 | 0.00 | 0.00 | 94 | 1011.3 |
| 20260509052226 | 73 | 109 | 7.0 | 8.7 | 0.00 | 0.00 | 0.00 | 93 | 1011.3 |
| 20260509051723 | 73 | 175 | 2.6 | 7.0 | 0.00 | 0.00 | 0.00 | 93 | 1011.3 |
| 20260509051221 | 73 | 124 | 5.2 | 6.1 | 0.00 | 0.00 | 0.00 | 93 | 1011.3 |
| 20260509050718 | 73 | 136 | 0.9 | 1.7 | 0.00 | 0.00 | 0.00 | 92 | 1011.1 |
| 20260509050214 | 74 | 169 | 1.7 | 2.6 | 0.00 | 0.00 | 0.00 | 92 | 1011.2 |
| 20260509045711 | 74 | 128 | 2.6 | 2.6 | 0.00 | 0.00 | 0.00 | 92 | 1011.3 |
| 20260509045208 | 74 | 139 | 0.0 | 0.0 | 0.00 | 0.00 | 0.00 | 92 | 1011.3 |
| 20260509044705 | 74 | 149 | 2.6 | 2.6 | 0.00 | 0.00 | 0.00 | 91 | 1011.5 |
| 20260509044203 | 74 | 171 | 3.5 | 5.2 | 0.00 | 0.00 | 0.00 | 91 | 1011.5 |
| 20260509043659 | 74 | 154 | 3.5 | 3.5 | 0.00 | 0.00 | 0.00 | 91 | 1011.5 |
| 20260509043155 | 74 | 136 | 3.5 | 3.5 | 0.00 | 0.00 | 0.00 | 91 | 1011.7 |
| 20260509042652 | 74 | 124 | 1.7 | 1.7 | 0.00 | 0.00 | 0.00 | 91 | 1011.6 |
| 20260509042148 | 74 | 136 | 2.6 | 3.5 | 0.00 | 0.00 | 0.00 | 91 | 1011.6 |
| 20260509041644 | 74 | 149 | 2.6 | 2.6 | 0.00 | 0.00 | 0.00 | 91 | 1011.6 |
| 20260509041142 | 74 | 131 | 4.3 | 5.2 | 0.00 | 0.00 | 0.00 | 90 | 1011.9 |
| 20260509040640 | 74 | 126 | 1.7 | 2.6 | 0.00 | 0.00 | 0.00 | 90 | 1011.9 |
| 20260509040137 | 74 | 86 | 1.7 | 2.6 | 0.00 | 0.00 | 0.00 | 90 | 1011.8 |
| 20260509035634 | 74 | 114 | 4.3 | 5.2 | 0.00 | 0.00 | 0.00 | 90 | 1012.0 |
| 20260509035130 | 74 | 130 | 2.6 | 3.5 | 0.00 | 0.00 | 0.00 | 90 | 1011.8 |
| 20260509034628 | 74 | 101 | 3.5 | 5.2 | 0.00 | 0.00 | 0.00 | 90 | 1011.7 |
| 20260509034125 | 74 | 148 | 0.0 | 0.9 | 0.00 | 0.00 | 0.00 | 90 | 1011.5 |
| 20260509033622 | 74 | 159 | 3.5 | 3.5 | 0.00 | 0.00 | 0.00 | 90 | 1011.5 |
| 20260509033119 | 74 | 162 | 2.6 | 2.6 | 0.00 | 0.00 | 0.00 | 90 | 1011.5 |
| 20260509032616 | 74 | 124 | 1.7 | 1.7 | 0.00 | 0.00 | 0.00 | 90 | 1011.3 |
| 20260509032113 | 74 | 148 | 0.9 | 0.9 | 0.00 | 0.00 | 0.00 | 90 | 1011.3 |
| 20260509031611 | 74 | 146 | 1.7 | 2.6 | 0.00 | 0.00 | 0.00 | 90 | 1011.5 |
| 20260509031108 | 74 | 139 | 1.7 | 3.5 | 0.00 | 0.00 | 0.00 | 90 | 1011.4 |
| 20260509030606 | 74 | 156 | 1.7 | 1.7 | 0.00 | 0.00 | 0.00 | 90 | 1011.2 |
| 20260509025559 | 74 | 113 | 0.9 | 0.9 | 0.00 | 0.00 | 0.00 | 89 | 1011.2 |
| 20260509025054 | 74 | 131 | 0.9 | 1.7 | 0.00 | 0.00 | 0.00 | 89 | 1011.4 |
| 20260509024550 | 75 | 86 | 1.7 | 2.6 | 0.00 | 0.00 | 0.00 | 89 | 1011.4 |
| 20260509024047 | 75 | 70 | 0.9 | 0.9 | 0.00 | 0.00 | 0.00 | 88 | 1011.4 |
| 20260509023545 | 75 | 95 | 2.6 | 2.6 | 0.00 | 0.00 | 0.00 | 88 | 1011.4 |
| 20260509023041 | 75 | 96 | 2.6 | 2.6 | 0.00 | 0.00 | 0.00 | 88 | 1011.3 |
| 20260509022538 | 75 | 64 | 2.6 | 3.5 | 0.00 | 0.00 | 0.00 | 88 | 1011.0 |
| 20260509022036 | 75 | 100 | 3.5 | 5.2 | 0.00 | 0.00 | 0.00 | 88 | 1011.0 |
| 20260509021533 | 75 | 105 | 5.2 | 6.1 | 0.00 | 0.00 | 0.00 | 87 | 1010.8 |
| 20260509021029 | 75 | 91 | 3.5 | 3.5 | 0.00 | 0.00 | 0.00 | 87 | 1010.8 |
| 20260509020528 | 75 | 122 | 1.7 | 1.7 | 0.00 | 0.00 | 0.00 | 87 | 1010.5 |
| 20260509020024 | 75 | 132 | 1.7 | 1.7 | 0.00 | 0.00 | 0.00 | 87 | 1010.8 |
| 20260509015523 | 76 | 134 | 3.5 | 3.5 | 0.00 | 0.00 | 0.00 | 86 | 1010.7 |
| 20260509015020 | 76 | 102 | 4.3 | 5.2 | 0.00 | 0.00 | 0.00 | 86 | 1010.9 |
| 20260509014516 | 76 | 116 | 5.2 | 6.1 | 0.00 | 0.00 | 0.00 | 86 | 1010.4 |
| 20260509014007 | 76 | 121 | 4.3 | 5.2 | 0.00 | 0.00 | 0.00 | 86 | 1010.6 |
| 20260509013504 | 76 | 75 | 3.5 | 6.1 | 0.00 | 0.00 | 0.00 | 85 | 1010.4 |
| 20260509013000 | 76 | 113 | 5.2 | 6.1 | 0.00 | 0.00 | 0.00 | 85 | 1010.5 |
| 20260509012456 | 76 | 91 | 2.6 | 2.6 | 0.00 | 0.00 | 0.00 | 85 | 1010.4 |
| 20260509011953 | 77 | 122 | 3.5 | 3.5 | 0.00 | 0.00 | 0.00 | 85 | 1010.3 |
| 20260509011451 | 77 | 102 | 1.7 | 2.6 | 0.00 | 0.00 | 0.00 | 85 | 1010.3 |
| 20260509010948 | 77 | 103 | 3.5 | 5.2 | 0.00 | 0.00 | 0.00 | 84 | 1010.5 |
| 20260509010446 | 77 | 98 | 2.6 | 3.5 | 0.00 | 0.00 | 0.00 | 84 | 1010.6 |
| 20260509005942 | 77 | 113 | 3.5 | 5.2 | 0.00 | 0.00 | 0.00 | 84 | 1010.5 |
| 20260509005440 | 77 | 94 | 1.7 | 2.6 | 0.00 | 0.00 | 0.00 | 83 | 1010.5 |
| 20260509004935 | 77 | 76 | 4.3 | 7.0 | 0.00 | 0.00 | 0.00 | 83 | 1010.3 |
| 20260509004431 | 77 | 82 | 5.2 | 6.1 | 0.00 | 0.00 | 0.00 | 83 | 1010.3 |
| 20260509003929 | 77 | 88 | 2.6 | 3.5 | 0.00 | 0.00 | 0.00 | 83 | 1010.4 |
| 20260509003427 | 77 | 64 | 2.6 | 2.6 | 0.00 | 0.00 | 0.00 | 82 | 1010.4 |
| 20260509002923 | 77 | 81 | 1.7 | 3.5 | 0.00 | 0.00 | 0.00 | 82 | 1010.5 |
| 20260509002422 | 77 | 101 | 3.5 | 5.2 | 0.00 | 0.00 | 0.00 | 82 | 1010.4 |
| 20260509001918 | 77 | 111 | 3.5 | 5.2 | 0.00 | 0.00 | 0.00 | 82 | 1010.4 |
| 20260509001415 | 77 | 113 | 3.5 | 5.2 | 0.00 | 0.00 | 0.00 | 82 | 1010.5 |
| 20260509000912 | 77 | 87 | 1.7 | 2.6 | 0.00 | 0.00 | 0.00 | 82 | 1010.4 |
| 20260509000410 | 78 | 11 | 0.9 | 0.9 | 0.00 | 0.00 | 0.00 | 82 | 1010.6 |
| 20260508235905 | 78 | 43 | 0.9 | 2.6 | 0.00 | 0.00 | 0.00 | 81 | 1010.4 |
| 20260508235403 | 78 | 96 | 2.6 | 3.5 | 0.00 | 0.00 | 0.00 | 80 | 1010.5 |
| 20260508234900 | 78 | 38 | 1.7 | 1.7 | 0.00 | 0.00 | 0.00 | 80 | 1010.4 |
| 20260508234356 | 78 | 83 | 4.3 | 6.1 | 0.00 | 0.00 | 0.00 | 80 | 1010.3 |
| 20260508233855 | 78 | 101 | 5.2 | 7.0 | 0.00 | 0.00 | 0.00 | 80 | 1010.5 |
| 20260508233354 | 78 | 104 | 4.3 | 7.0 | 0.00 | 0.00 | 0.00 | 80 | 1010.4 |
| 20260508232850 | 78 | 80 | 2.6 | 2.6 | 0.00 | 0.00 | 0.00 | 80 | 1010.6 |
| 20260508232347 | 78 | 93 | 3.5 | 3.5 | 0.00 | 0.00 | 0.00 | 80 | 1010.5 |
| 20260508231845 | 78 | 82 | 0.0 | 0.0 | 0.00 | 0.00 | 0.00 | 81 | 1010.4 |
| 20260508231341 | 78 | 125 | 0.9 | 1.7 | 0.00 | 0.00 | 0.00 | 81 | 1010.3 |
| 20260508230838 | 77 | 100 | 5.2 | 6.1 | 0.00 | 0.00 | 0.00 | 81 | 1010.3 |
| 20260508230334 | 77 | 87 | 3.5 | 3.5 | 0.00 | 0.00 | 0.00 | 81 | 1010.5 |
| 20260508225832 | 77 | 58 | 0.0 | 1.7 | 0.00 | 0.00 | 0.00 | 82 | 1010.5 |
| 20260508225328 | 77 | 89 | 3.5 | 6.1 | 0.00 | 0.00 | 0.00 | 82 | 1010.5 |
| 20260508224827 | 77 | 83 | 3.5 | 3.5 | 0.00 | 0.00 | 0.00 | 82 | 1010.6 |
| 20260508224324 | 77 | 16 | 0.9 | 1.7 | 0.00 | 0.00 | 0.00 | 82 | 1010.5 |
| 20260508223821 | 77 | 66 | 3.5 | 6.1 | 0.00 | 0.00 | 0.00 | 81 | 1010.5 |
| 20260508223318 | 77 | 68 | 1.7 | 1.7 | 0.00 | 0.00 | 0.00 | 81 | 1010.4 |
| 20260508222816 | 77 | 93 | 4.3 | 7.8 | 0.00 | 0.00 | 0.00 | 81 | 1010.3 |
| 20260508222313 | 78 | 66 | 2.6 | 5.2 | 0.00 | 0.00 | 0.00 | 81 | 1010.7 |
| 20260508221809 | 78 | 354 | 2.6 | 5.2 | 0.00 | 0.00 | 0.00 | 81 | 1010.5 |
| 20260508221305 | 78 | 16 | 2.6 | 5.2 | 0.00 | 0.00 | 0.00 | 80 | 1010.5 |
| 20260508220801 | 78 | 52 | 2.6 | 5.2 | 0.00 | 0.00 | 0.00 | 79 | 1010.6 |
| 20260508220258 | 78 | 69 | 7.0 | 7.8 | 0.00 | 0.00 | 0.00 | 80 | 1010.5 |
| 20260508215755 | 78 | 35 | 1.7 | 5.2 | 0.00 | 0.00 | 0.00 | 80 | 1010.6 |
| 20260508215251 | 77 | 71 | 4.3 | 5.2 | 0.00 | 0.00 | 0.00 | 80 | 1010.6 |
| 20260508214749 | 77 | 46 | 4.3 | 6.1 | 0.00 | 0.00 | 0.00 | 80 | 1010.7 |
| 20260508214246 | 78 | 67 | 1.7 | 3.5 | 0.00 | 0.00 | 0.00 | 79 | 1010.9 |
| 20260508213742 | 78 | 23 | 1.7 | 2.6 | 0.00 | 0.00 | 0.00 | 79 | 1010.8 |
| 20260508213238 | 77 | 75 | 0.9 | 1.7 | 0.00 | 0.00 | 0.00 | 81 | 1010.8 |
| 20260508212730 | 78 | 31 | 2.6 | 3.5 | 0.00 | 0.00 | 0.00 | 79 | 1010.7 |
| 20260508212226 | 78 | 68 | 3.5 | 7.0 | 0.00 | 0.00 | 0.00 | 78 | 1011.0 |
| 20260508211722 | 78 | 14 | 0.0 | 0.0 | 0.00 | 0.00 | 0.00 | 79 | 1011.1 |
| 20260508211218 | 78 | 103 | 1.7 | 2.6 | 0.00 | 0.00 | 0.00 | 79 | 1011.1 |
| 20260508210715 | 79 | 101 | 3.5 | 5.2 | 0.00 | 0.00 | 0.00 | 78 | 1011.2 |
| 20260508210212 | 78 | 52 | 0.9 | 2.6 | 0.00 | 0.00 | 0.00 | 79 | 1011.5 |
| 20260508205709 | 78 | 47 | 3.5 | 5.2 | 0.00 | 0.00 | 0.00 | 78 | 1011.4 |
| 20260508205205 | 77 | 79 | 1.7 | 2.6 | 0.00 | 0.00 | 0.00 | 80 | 1011.4 |
| 20260508204701 | 78 | 67 | 5.2 | 7.0 | 0.00 | 0.00 | 0.00 | 78 | 1011.5 |
| 20260508204158 | 77 | 325 | 1.7 | 2.6 | 0.00 | 0.00 | 0.00 | 78 | 1011.5 |
| 20260508203654 | 79 | 33 | 3.5 | 3.5 | 0.00 | 0.00 | 0.00 | 77 | 1011.8 |
| 20260508203150 | 77 | 327 | 0.0 | 0.9 | 0.00 | 0.00 | 0.00 | 79 | 1011.5 |
| 20260508202647 | 77 | 34 | 1.7 | 2.6 | 0.00 | 0.00 | 0.00 | 80 | 1011.6 |
| 20260508202144 | 78 | 165 | 1.7 | 2.6 | 0.00 | 0.00 | 0.00 | 78 | 1011.8 |
| 20260508201641 | 77 | 359 | 3.5 | 5.2 | 0.00 | 0.00 | 0.00 | 77 | 1011.9 |
| 20260508201137 | 76 | 56 | 0.9 | 1.7 | 0.00 | 0.00 | 0.00 | 80 | 1011.9 |
| 20260508200634 | 76 | 55 | 2.6 | 3.5 | 0.00 | 0.00 | 0.00 | 80 | 1012.1 |
| 20260508200130 | 75 | 76 | 1.7 | 2.6 | 0.00 | 0.00 | 0.00 | 79 | 1012.3 |
| 20260508195627 | 75 | 49 | 2.6 | 3.5 | 0.00 | 0.00 | 0.00 | 80 | 1012.2 |
| 20260508195123 | 76 | 53 | 3.5 | 5.2 | 0.00 | 0.00 | 0.00 | 79 | 1012.3 |
| 20260508194620 | 75 | 31 | 0.9 | 1.7 | 0.00 | 0.00 | 0.00 | 79 | 1012.5 |
| 20260508194117 | 75 | 40 | 4.3 | 6.1 | 0.00 | 0.00 | 0.00 | 79 | 1012.4 |
| 20260508193614 | 76 | 56 | 1.7 | 2.6 | 0.00 | 0.00 | 0.00 | 79 | 1012.5 |
| 20260508193110 | 75 | 81 | 3.5 | 3.5 | 0.00 | 0.00 | 0.00 | 78 | 1012.5 |
| 20260508192607 | 77 | 85 | 5.2 | 6.1 | 0.00 | 0.00 | 0.00 | 77 | 1012.4 |
| 20260508192104 | 77 | 76 | 1.7 | 2.6 | 0.00 | 0.00 | 0.00 | 77 | 1012.6 |
| 20260508191601 | 76 | 81 | 7.0 | 9.6 | 0.00 | 0.00 | 0.00 | 77 | 1012.5 |
| 20260508191057 | 76 | 97 | 3.5 | 5.2 | 0.00 | 0.00 | 0.00 | 77 | 1012.7 |
| 20260508190549 | 77 | 68 | 2.6 | 2.6 | 0.00 | 0.00 | 0.00 | 76 | 1012.5 |
| 20260508190045 | 77 | 24 | 0.0 | 0.0 | 0.00 | 0.00 | 0.00 | 77 | 1012.8 |
| 20260508185543 | 76 | 21 | 4.3 | 5.2 | 0.00 | 0.00 | 0.00 | 77 | 1012.7 |
| 20260508185040 | 75 | 353 | 2.6 | 3.5 | 0.00 | 0.00 | 0.00 | 77 | 1012.7 |
| 20260508184537 | 75 | 23 | 3.5 | 6.1 | 0.00 | 0.00 | 0.00 | 77 | 1012.9 |
| 20260508184034 | 75 | 71 | 3.5 | 6.1 | 0.00 | 0.00 | 0.00 | 77 | 1013.2 |
| 20260508183531 | 74 | 142 | 1.7 | 1.7 | 0.00 | 0.00 | 0.00 | 78 | 1013.0 |
| 20260508183027 | 75 | 55 | 1.7 | 2.6 | 0.00 | 0.00 | 0.00 | 77 | 1013.2 |
| 20260508182523 | 76 | 340 | 2.6 | 2.6 | 0.00 | 0.00 | 0.00 | 75 | 1013.5 |
| 20260508182020 | 75 | 149 | 1.7 | 2.6 | 0.00 | 0.00 | 0.00 | 77 | 1013.4 |
| 20260508181515 | 76 | 39 | 0.0 | 0.9 | 0.00 | 0.00 | 0.00 | 76 | 1013.5 |
| 20260508181013 | 74 | 315 | 0.9 | 1.7 | 0.00 | 0.00 | 0.00 | 77 | 1013.5 |
| 20260508180509 | 75 | 72 | 1.7 | 1.7 | 0.00 | 0.00 | 0.00 | 76 | 1013.8 |
| 20260508180006 | 76 | 38 | 3.5 | 5.2 | 0.00 | 0.00 | 0.00 | 75 | 1013.8 |
| 20260508175502 | 74 | 23 | 0.9 | 0.9 | 0.00 | 0.00 | 0.00 | 77 | 1013.9 |
| 20260508175000 | 73 | 14 | 0.9 | 0.9 | 0.00 | 0.00 | 0.00 | 79 | 1013.8 |
| 20260508174457 | 73 | 89 | 5.2 | 6.1 | 0.00 | 0.00 | 0.00 | 78 | 1014.0 |
| 20260508173954 | 71 | 82 | 0.9 | 1.7 | 0.00 | 0.00 | 0.00 | 81 | 1013.8 |
| 20260508173451 | 72 | 80 | 1.7 | 2.6 | 0.00 | 0.00 | 0.00 | 82 | 1013.9 |
| 20260508172947 | 71 | 332 | 0.9 | 1.7 | 0.00 | 0.00 | 0.00 | 79 | 1014.0 |
| 20260508172444 | 71 | 58 | 1.7 | 2.6 | 0.00 | 0.00 | 0.00 | 80 | 1014.0 |
| 20260508171941 | 71 | 0 | 2.6 | 2.6 | 0.00 | 0.00 | 0.00 | 81 | 1014.0 |
| 20260508171437 | 70 | 26 | 4.3 | 6.1 | 0.00 | 0.00 | 0.00 | 80 | 1014.1 |
| 20260508170934 | 70 | 345 | 4.3 | 5.2 | 0.00 | 0.00 | 0.00 | 80 | 1014.3 |
| 20260508170431 | 69 | 65 | 1.7 | 3.5 | 0.00 | 0.00 | 0.00 | 82 | 1014.3 |
| 20260508165928 | 70 | 13 | 1.7 | 1.7 | 0.00 | 0.00 | 0.00 | 81 | 1014.2 |
| 20260508165426 | 69 | 307 | 0.9 | 0.9 | 0.00 | 0.00 | 0.00 | 81 | 1014.6 |
| 20260508164921 | 70 | 302 | 2.6 | 2.6 | 0.00 | 0.00 | 0.00 | 81 | 1014.5 |
| 20260508164419 | 69 | 342 | 1.7 | 1.7 | 0.00 | 0.00 | 0.00 | 80 | 1014.7 |
| 20260508163916 | 69 | 24 | 0.0 | 0.9 | 0.00 | 0.00 | 0.00 | 81 | 1014.7 |
| 20260508163414 | 69 | 17 | 0.0 | 0.9 | 0.00 | 0.00 | 0.00 | 82 | 1014.7 |
| 20260508162909 | 69 | 32 | 0.9 | 0.9 | 0.00 | 0.00 | 0.00 | 81 | 1015.0 |
| 20260508162407 | 68 | 334 | 0.9 | 0.9 | 0.00 | 0.00 | 0.00 | 82 | 1014.9 |
| 20260508161903 | 69 | 13 | 0.9 | 2.6 | 0.00 | 0.00 | 0.00 | 81 | 1014.9 |
| 20260508161401 | 69 | 308 | 0.9 | 0.9 | 0.00 | 0.00 | 0.00 | 80 | 1014.9 |
| 20260508160858 | 69 | 19 | 2.6 | 2.6 | 0.00 | 0.00 | 0.00 | 80 | 1014.7 |
| 20260508160356 | 69 | 346 | 0.0 | 0.9 | 0.00 | 0.00 | 0.00 | 80 | 1015.2 |
| 20260508155852 | 69 | 19 | 1.7 | 1.7 | 0.00 | 0.00 | 0.00 | 82 | 1015.1 |
| 20260508155350 | 68 | 299 | 0.9 | 1.7 | 0.00 | 0.00 | 0.00 | 81 | 1015.1 |
| 20260508154846 | 68 | 292 | 0.9 | 1.7 | 0.00 | 0.00 | 0.00 | 81 | 1015.0 |
| 20260508154344 | 67 | 299 | 0.9 | 0.9 | 0.00 | 0.00 | 0.00 | 82 | 1015.1 |
| 20260508153840 | 67 | 315 | 0.9 | 0.9 | 0.00 | 0.00 | 0.00 | 82 | 1015.3 |
| 20260508153338 | 67 | 270 | 0.9 | 1.7 | 0.00 | 0.00 | 0.00 | 83 | 1015.2 |
| 20260508152833 | 67 | 318 | 0.9 | 1.7 | 0.00 | 0.00 | 0.00 | 83 | 1015.3 |
| 20260508152330 | 67 | 26 | 0.0 | 0.9 | 0.00 | 0.00 | 0.00 | 84 | 1015.2 |
| 20260508151826 | 66 | 193 | 0.0 | 0.0 | 0.00 | 0.00 | 0.00 | 83 | 1015.3 |
| 20260508151324 | 66 | 86 | 0.0 | 0.0 | 0.00 | 0.00 | 0.00 | 83 | 1015.4 |
| 20260508150820 | 66 | 91 | 0.9 | 1.7 | 0.00 | 0.00 | 0.00 | 85 | 1015.3 |
| 20260508150316 | 65 | 30 | 0.9 | 1.7 | 0.00 | 0.00 | 0.00 | 85 | 1015.3 |
| 20260508145807 | 65 | 125 | 2.6 | 2.6 | 0.00 | 0.00 | 0.00 | 85 | 1015.3 |
| 20260508145306 | 66 | 74 | 1.7 | 2.6 | 0.00 | 0.00 | 0.00 | 84 | 1015.1 |
| 20260508144800 | 65 | 62 | 0.9 | 2.6 | 0.00 | 0.00 | 0.00 | 85 | 1015.3 |
| 20260508144258 | 65 | 46 | 0.9 | 0.9 | 0.00 | 0.00 | 0.00 | 85 | 1015.3 |
| 20260508143756 | 65 | 26 | 0.9 | 1.7 | 0.00 | 0.00 | 0.00 | 84 | 1015.3 |
| 20260508143252 | 65 | 123 | 0.9 | 1.7 | 0.00 | 0.00 | 0.00 | 85 | 1015.2 |
| 20260508142749 | 64 | 87 | 3.5 | 3.5 | 0.00 | 0.00 | 0.00 | 85 | 1015.2 |
| 20260508142246 | 65 | 95 | 6.1 | 7.0 | 0.00 | 0.00 | 0.00 | 83 | 1015.3 |
| 20260508141742 | 64 | 70 | 1.7 | 1.7 | 0.00 | 0.00 | 0.00 | 84 | 1015.2 |
| 20260508141240 | 64 | 112 | 0.0 | 0.9 | 0.00 | 0.00 | 0.00 | 85 | 1015.4 |
| 20260508140737 | 64 | 23 | 0.9 | 1.7 | 0.00 | 0.00 | 0.00 | 85 | 1015.3 |
| 20260508140233 | 64 | 23 | 1.7 | 2.6 | 0.00 | 0.00 | 0.00 | 83 | 1015.3 |